ELY544 LGAV-LLBG

Flight info

Callsign ELY544
Flight time 1h 31m
Altitude 37000
Route KEA N132 TUXEM UT514 PEXAN UM601 MADEX UN132 KUPIS UN134 VANZA DCT PIKOG L609 ZUKKO
Aircraft B789/H-SACDE1E2E3GHIJ1J3J4J5LM1OP2RVWXY/LB2D1

Departure

Time 2026-05-05 22:15
Airport Athens Eleftherios Venizelos International Airport (LGAV)

Arrival

Time 2026-05-05 23:46
Airport Ben Gurion International Airport (LLBG)
Time Latitude Longitude Altitude Speed Heading
2026-05-05 21:34 37.93367 23.94629 297 ft 0 kts 309°
2026-05-05 22:04 37.93361 23.94639 292 ft 3 kts 318°
2026-05-05 22:04 37.93348 23.94654 298 ft 3 kts 306°
2026-05-05 22:04 37.93338 23.94675 298 ft 3 kts 290°
2026-05-05 22:05 37.93334 23.94696 298 ft 3 kts 264°
2026-05-05 22:05 37.93338 23.94715 297 ft 3 kts 234°
2026-05-05 22:05 37.93348 23.94729 297 ft 1 kts 217°
2026-05-05 22:05 37.93349 23.94730 296 ft 7 kts 217°
2026-05-05 22:10 37.93310 23.94693 297 ft 15 kts 217°
2026-05-05 22:11 37.93218 23.94611 295 ft 14 kts 204°
2026-05-05 22:11 37.93153 23.94595 295 ft 9 kts 187°
2026-05-05 22:11 37.93094 23.94614 293 ft 9 kts 140°
2026-05-05 22:11 37.93049 23.94668 295 ft 8 kts 159°
2026-05-05 22:12 37.92970 23.94632 293 ft 15 kts 217°
2026-05-05 22:12 37.92884 23.94550 288 ft 16 kts 217°
2026-05-05 22:12 37.92790 23.94459 287 ft 18 kts 217°
2026-05-05 22:12 37.92689 23.94364 290 ft 19 kts 217°
2026-05-05 22:13 37.92595 23.94285 285 ft 12 kts 189°
2026-05-05 22:13 37.92531 23.94333 285 ft 10 kts 127°
2026-05-05 22:13 37.92491 23.94407 284 ft 8 kts 112°
2026-05-05 22:13 37.92502 23.94460 284 ft 6 kts 58°
2026-05-05 22:14 37.92538 23.94504 284 ft 11 kts 37°
2026-05-05 22:14 37.92727 23.94683 286 ft 64 kts 37°
2026-05-05 22:14 37.93263 23.95190 299 ft 126 kts 37°
2026-05-05 22:14 37.94101 23.95985 320 ft 176 kts 36°
2026-05-05 22:15 37.95148 23.96968 836 ft 192 kts 34°
2026-05-05 22:15 37.96233 23.98008 1626 ft 203 kts 37°
2026-05-05 22:15 37.97346 23.99152 2538 ft 208 kts 38°
2026-05-05 22:15 37.98510 24.00360 3411 ft 225 kts 37°
2026-05-05 22:16 37.99369 24.01188 3812 ft 243 kts 34°
2026-05-05 22:16 38.01231 24.02840 5354 ft 243 kts 39°
2026-05-05 22:16 38.01921 24.03983 5982 ft 255 kts 63°
2026-05-05 22:16 38.02193 24.06277 6942 ft 271 kts 93°
2026-05-05 22:17 38.01568 24.08541 8143 ft 280 kts 118°
2026-05-05 22:17 38.00483 24.10639 9221 ft 288 kts 121°
2026-05-05 22:17 37.99345 24.12770 10308 ft 296 kts 120°
2026-05-05 22:17 37.98182 24.15070 10810 ft 324 kts 119°
2026-05-05 22:18 37.96936 24.17590 11240 ft 352 kts 119°
2026-05-05 22:18 37.95600 24.20234 12196 ft 359 kts 120°
2026-05-05 22:18 37.94226 24.22927 13203 ft 368 kts 120°
2026-05-05 22:18 37.92827 24.25689 14170 ft 375 kts 120°
2026-05-05 22:19 37.91412 24.28492 15067 ft 382 kts 120°
2026-05-05 22:19 37.89960 24.31359 15909 ft 390 kts 120°
2026-05-05 22:19 37.88495 24.34242 16776 ft 397 kts 120°
2026-05-05 22:19 37.86985 24.37211 17623 ft 405 kts 121°
2026-05-05 22:20 37.85447 24.40240 18449 ft 412 kts 121°
2026-05-05 22:20 37.83884 24.43312 19196 ft 418 kts 121°
2026-05-05 22:20 37.82299 24.46422 19955 ft 423 kts 121°
2026-05-05 22:20 37.80698 24.49564 20688 ft 429 kts 121°
2026-05-05 22:21 37.79071 24.52753 21398 ft 434 kts 121°
2026-05-05 22:21 37.77439 24.55948 22114 ft 439 kts 121°
2026-05-05 22:21 37.75772 24.59209 22810 ft 444 kts 121°
2026-05-05 22:21 37.74083 24.62509 23474 ft 449 kts 121°
2026-05-05 22:22 37.72374 24.65845 24053 ft 454 kts 121°
2026-05-05 22:22 37.70650 24.69207 24626 ft 457 kts 121°
2026-05-05 22:22 37.68914 24.72588 25171 ft 461 kts 121°
2026-05-05 22:22 37.67166 24.75990 25704 ft 464 kts 121°
2026-05-05 22:23 37.65423 24.79377 26218 ft 468 kts 121°
2026-05-05 22:23 37.63647 24.82827 26748 ft 471 kts 121°
2026-05-05 22:23 37.61848 24.86318 27257 ft 475 kts 121°
2026-05-05 22:23 37.60038 24.89824 27738 ft 478 kts 121°
2026-05-05 22:24 37.58218 24.93348 28229 ft 482 kts 121°
2026-05-05 22:24 37.56381 24.96901 28732 ft 484 kts 121°
2026-05-05 22:24 37.54532 25.00472 29200 ft 488 kts 121°
2026-05-05 22:24 37.52671 25.04065 29634 ft 491 kts 121°
2026-05-05 22:25 37.50798 25.07674 30078 ft 494 kts 121°
2026-05-05 22:25 37.48910 25.11310 30458 ft 497 kts 121°
2026-05-05 22:25 37.47007 25.14971 30775 ft 501 kts 121°
2026-05-05 22:25 37.45090 25.18654 31094 ft 505 kts 121°
2026-05-05 22:26 37.43158 25.22362 31412 ft 509 kts 121°
2026-05-05 22:26 37.41209 25.26097 31747 ft 512 kts 121°
2026-05-05 22:26 37.39249 25.29850 32049 ft 515 kts 121°
2026-05-05 22:26 37.37277 25.33622 32353 ft 519 kts 121°
2026-05-05 22:27 37.35284 25.37430 32638 ft 522 kts 121°
2026-05-05 22:27 37.33285 25.41245 32940 ft 525 kts 121°
2026-05-05 22:27 37.31265 25.45094 33229 ft 528 kts 121°
2026-05-05 22:27 37.29263 25.48905 33535 ft 530 kts 121°
2026-05-05 22:28 37.27232 25.52767 33950 ft 530 kts 121°
2026-05-05 22:28 37.25197 25.56632 34318 ft 530 kts 121°
2026-05-05 22:28 37.23163 25.60492 34685 ft 529 kts 121°
2026-05-05 22:28 37.21131 25.64344 35032 ft 529 kts 121°
2026-05-05 22:29 37.19100 25.68187 35366 ft 530 kts 121°
2026-05-05 22:29 37.17058 25.72048 35725 ft 529 kts 121°
2026-05-05 22:29 37.15026 25.75887 36064 ft 529 kts 121°
2026-05-05 22:29 37.12986 25.79735 36401 ft 529 kts 121°
2026-05-05 22:30 37.10943 25.83584 36719 ft 529 kts 122°
2026-05-05 22:30 37.08904 25.87422 37068 ft 529 kts 122°
2026-05-05 22:30 37.06841 25.91302 37057 ft 534 kts 122°
2026-05-05 22:31 37.02736 25.99001 37061 ft 528 kts 122°
2026-05-05 22:31 36.98690 26.06580 37055 ft 526 kts 122°
2026-05-05 22:32 36.94618 26.14187 37063 ft 526 kts 122°
2026-05-05 22:32 36.90534 26.21800 37066 ft 527 kts 122°
2026-05-05 22:33 36.86448 26.29399 37063 ft 526 kts 122°
2026-05-05 22:33 36.82353 26.36997 37075 ft 526 kts 122°
2026-05-05 22:34 36.78291 26.44517 37070 ft 525 kts 122°
2026-05-05 22:34 36.74186 26.52101 37078 ft 524 kts 122°
2026-05-05 22:35 36.70103 26.59626 37075 ft 523 kts 122°
2026-05-05 22:35 36.66045 26.67089 37064 ft 522 kts 122°
2026-05-05 22:36 36.61971 26.74566 37063 ft 521 kts 122°
2026-05-05 22:36 36.57892 26.82034 37069 ft 522 kts 122°
2026-05-05 22:37 36.53804 26.89503 37071 ft 523 kts 123°
2026-05-05 22:37 36.49706 26.96974 37074 ft 522 kts 123°
2026-05-05 22:38 36.45610 27.04425 37069 ft 521 kts 123°
2026-05-05 22:38 36.41525 27.11839 37062 ft 519 kts 123°
2026-05-05 22:39 36.37476 27.19172 37063 ft 518 kts 123°
2026-05-05 22:39 36.33395 27.26548 37063 ft 518 kts 123°
2026-05-05 22:40 36.29309 27.33917 37062 ft 519 kts 123°
2026-05-05 22:40 36.25211 27.41290 37058 ft 519 kts 123°
2026-05-05 22:41 36.21105 27.48663 37053 ft 520 kts 123°
2026-05-05 22:41 36.16991 27.56034 37055 ft 520 kts 123°
2026-05-05 22:42 36.12899 27.63350 37056 ft 518 kts 123°
2026-05-05 22:42 36.08769 27.70718 37052 ft 518 kts 123°
2026-05-05 22:43 36.04655 27.78042 37059 ft 519 kts 123°
2026-05-05 22:43 36.00529 27.85372 37052 ft 520 kts 124°
2026-05-05 22:44 35.96412 27.92671 37051 ft 519 kts 124°
2026-05-05 22:44 35.92285 27.99971 37046 ft 519 kts 124°
2026-05-05 22:45 35.88158 28.07255 37049 ft 518 kts 124°
2026-05-05 22:45 35.84036 28.14518 37041 ft 518 kts 124°
2026-05-05 22:46 35.79916 28.21759 37043 ft 517 kts 124°
2026-05-05 22:46 35.75779 28.29017 37038 ft 519 kts 124°
2026-05-05 22:47 35.71618 28.36300 37045 ft 520 kts 124°
2026-05-05 22:47 35.67448 28.43585 37040 ft 521 kts 124°
2026-05-05 22:48 35.63264 28.50878 37040 ft 521 kts 125°
2026-05-05 22:48 35.59084 28.58148 37031 ft 520 kts 125°
2026-05-05 22:49 35.54929 28.65362 37031 ft 519 kts 125°
2026-05-05 22:49 35.50767 28.72571 37028 ft 518 kts 125°
2026-05-05 22:50 35.46566 28.79833 37037 ft 519 kts 125°
2026-05-05 22:50 35.42406 28.87010 37036 ft 520 kts 126°
2026-05-05 22:51 35.38187 28.94273 37041 ft 521 kts 126°
2026-05-05 22:51 35.33993 29.01478 37023 ft 521 kts 126°
2026-05-05 22:52 35.29788 29.08688 37026 ft 519 kts 126°
2026-05-05 22:52 35.25589 29.15874 37023 ft 518 kts 126°
2026-05-05 22:53 35.21395 29.23034 37022 ft 518 kts 126°
2026-05-05 22:53 35.17190 29.30199 37024 ft 519 kts 126°
2026-05-05 22:54 35.12964 29.37386 37029 ft 521 kts 126°
2026-05-05 22:54 35.08738 29.44557 37035 ft 521 kts 126°
2026-05-05 22:55 35.04489 29.51755 37034 ft 521 kts 126°
2026-05-05 22:55 35.00242 29.58932 37031 ft 520 kts 126°
2026-05-05 22:56 34.96024 29.66047 37036 ft 520 kts 126°
2026-05-05 22:56 34.91783 29.73185 37030 ft 519 kts 126°
2026-05-05 22:57 34.87548 29.80300 37041 ft 519 kts 127°
2026-05-05 22:57 34.83337 29.87360 37035 ft 519 kts 127°
2026-05-05 22:58 34.79078 29.94487 37042 ft 520 kts 127°
2026-05-05 22:58 34.74913 30.01687 37053 ft 520 kts 121°
2026-05-05 22:59 34.71111 30.09205 37040 ft 522 kts 122°
2026-05-05 22:59 34.67289 30.16708 37034 ft 522 kts 122°
2026-05-05 23:00 34.61569 30.27932 37035 ft 521 kts 122°
2026-05-05 23:00 34.58394 30.34143 37036 ft 520 kts 122°
2026-05-05 23:01 34.53957 30.42807 37038 ft 519 kts 123°
2026-05-05 23:01 34.50141 30.50238 37034 ft 519 kts 123°
2026-05-05 23:02 34.46933 30.56475 37036 ft 520 kts 123°
2026-05-05 23:02 34.43090 30.63931 37041 ft 522 kts 123°
2026-05-05 23:03 34.39258 30.71353 37040 ft 523 kts 123°
2026-05-05 23:03 34.35401 30.78805 37037 ft 521 kts 123°
2026-05-05 23:04 34.31553 30.86225 37069 ft 519 kts 124°
2026-05-05 23:04 34.27689 30.93659 37046 ft 524 kts 124°
2026-05-05 23:05 34.25150 30.98537 37042 ft 524 kts 124°
2026-05-05 23:06 34.22307 31.03991 37037 ft 523 kts 124°
2026-05-05 23:07 34.21428 31.05675 37037 ft 523 kts 124°
2026-05-05 23:09 34.20449 31.07549 37032 ft 523 kts 124°
2026-05-05 23:09 34.16596 31.14920 37026 ft 522 kts 124°
2026-05-05 23:10 34.12714 31.22329 37025 ft 522 kts 124°
2026-05-05 23:10 34.08821 31.29745 37025 ft 524 kts 125°
2026-05-05 23:11 34.04915 31.37171 37040 ft 524 kts 125°
2026-05-05 23:11 34.01006 31.44586 37042 ft 524 kts 125°
2026-05-05 23:12 33.97086 31.52009 37031 ft 524 kts 125°
2026-05-05 23:12 33.93170 31.59406 37030 ft 524 kts 125°
2026-05-05 23:13 33.89265 31.66770 37031 ft 523 kts 126°
2026-05-05 23:13 33.88437 31.68328 37032 ft 523 kts 126°
2026-05-05 23:14 33.84455 31.75816 37032 ft 523 kts 126°
2026-05-05 23:14 33.80607 31.83040 37029 ft 524 kts 126°
2026-05-05 23:15 33.76669 31.90416 37032 ft 524 kts 126°
2026-05-05 23:15 33.72718 31.97803 37041 ft 526 kts 126°
2026-05-05 23:16 33.68752 32.05201 37039 ft 526 kts 126°
2026-05-05 23:16 33.64779 32.12597 37031 ft 526 kts 126°
2026-05-05 23:17 33.60813 32.19966 37034 ft 525 kts 127°
2026-05-05 23:17 33.56879 32.27261 37034 ft 524 kts 127°
2026-05-05 23:18 33.52695 32.35003 37033 ft 524 kts 127°
2026-05-05 23:18 33.48727 32.42329 37036 ft 525 kts 127°
2026-05-05 23:19 33.44743 32.49673 37035 ft 526 kts 127°
2026-05-05 23:19 33.40768 32.56984 37049 ft 527 kts 127°
2026-05-05 23:20 33.36769 32.64325 37037 ft 525 kts 127°
2026-05-05 23:20 33.32779 32.71634 37037 ft 524 kts 127°
2026-05-05 23:21 33.30792 32.75270 36830 ft 520 kts 128°
2026-05-05 23:21 33.28796 32.78916 35921 ft 525 kts 128°
2026-05-05 23:21 33.26822 32.82517 35258 ft 524 kts 128°
2026-05-05 23:21 33.24958 32.85919 34595 ft 524 kts 128°
2026-05-05 23:24 33.23955 32.87747 34228 ft 524 kts 128°
2026-05-05 23:24 33.21964 32.91372 33099 ft 530 kts 128°
2026-05-05 23:25 33.19919 32.95086 31804 ft 539 kts 128°
2026-05-05 23:25 33.17893 32.98782 31719 ft 522 kts 128°
2026-05-05 23:25 33.15931 33.02363 31337 ft 511 kts 129°
2026-05-05 23:25 33.13978 33.05889 30672 ft 508 kts 129°
2026-05-05 23:26 33.12052 33.09362 29985 ft 506 kts 129°
2026-05-05 23:26 33.10125 33.12858 29293 ft 502 kts 129°
2026-05-05 23:26 33.08217 33.16322 28627 ft 497 kts 129°
2026-05-05 23:26 33.06324 33.19740 27993 ft 492 kts 129°
2026-05-05 23:27 33.04447 33.23121 27350 ft 487 kts 129°
2026-05-05 23:27 33.02580 33.26489 26731 ft 483 kts 129°
2026-05-05 23:27 33.00733 33.29821 26096 ft 479 kts 129°
2026-05-05 23:27 32.98900 33.33124 25474 ft 475 kts 129°
2026-05-05 23:28 32.97085 33.36388 24868 ft 471 kts 129°
2026-05-05 23:28 32.95279 33.39632 24265 ft 468 kts 129°
2026-05-05 23:28 32.93487 33.42851 23666 ft 464 kts 129°
2026-05-05 23:28 32.91727 33.46009 23012 ft 460 kts 128°
2026-05-05 23:29 32.89973 33.49155 22436 ft 454 kts 128°
2026-05-05 23:29 32.88237 33.52265 21864 ft 447 kts 128°
2026-05-05 23:29 32.86525 33.55329 21279 ft 441 kts 128°
2026-05-05 23:29 32.84838 33.58346 20742 ft 435 kts 128°
2026-05-05 23:30 32.83169 33.61326 20187 ft 429 kts 129°
2026-05-05 23:30 32.81971 33.63159 19842 ft 418 kts 139°
2026-05-05 23:30 32.79300 33.66448 19123 ft 410 kts 139°
2026-05-05 23:30 32.77346 33.68879 18615 ft 404 kts 139°
2026-05-05 23:31 32.75415 33.71256 18057 ft 394 kts 136°
2026-05-05 23:31 32.73531 33.73576 17573 ft 386 kts 136°
2026-05-05 23:31 32.71684 33.75855 17090 ft 378 kts 136°
2026-05-05 23:31 32.69899 33.78054 16611 ft 371 kts 136°
2026-05-05 23:32 32.68099 33.80269 16144 ft 365 kts 136°
2026-05-05 23:32 32.66367 33.82397 15664 ft 360 kts 136°
2026-05-05 23:32 32.64638 33.84522 15202 ft 357 kts 137°
2026-05-05 23:32 32.62911 33.86642 14765 ft 358 kts 137°
2026-05-05 23:33 32.61179 33.88769 14313 ft 356 kts 137°
2026-05-05 23:33 32.59470 33.90868 13864 ft 351 kts 137°
2026-05-05 23:33 32.57774 33.92946 13409 ft 351 kts 137°
2026-05-05 23:33 32.56078 33.95023 12972 ft 349 kts 137°
2026-05-05 23:34 32.54414 33.97087 12706 ft 345 kts 136°
2026-05-05 23:34 32.53322 33.98463 12550 ft 345 kts 136°
2026-05-05 23:34 32.51138 34.01207 12206 ft 345 kts 136°
2026-05-05 23:34 32.50028 34.02590 12023 ft 344 kts 136°
2026-05-05 23:35 32.48379 34.04641 11757 ft 342 kts 136°
2026-05-05 23:35 32.46743 34.06681 11515 ft 340 kts 136°
2026-05-05 23:35 32.45117 34.08710 11252 ft 339 kts 136°
2026-05-05 23:35 32.43525 34.10694 10997 ft 333 kts 136°
2026-05-05 23:36 32.42128 34.12808 10756 ft 320 kts 124°
2026-05-05 23:36 32.40874 34.15040 10527 ft 333 kts 127°
2026-05-05 23:36 32.39531 34.17313 10276 ft 339 kts 126°
2026-05-05 23:36 32.38204 34.19616 10020 ft 339 kts 126°
2026-05-05 23:37 32.36888 34.21937 9746 ft 337 kts 126°
2026-05-05 23:37 32.35583 34.24223 9493 ft 335 kts 126°
2026-05-05 23:37 32.34274 34.26495 9226 ft 333 kts 126°
2026-05-05 23:37 32.32973 34.28756 8991 ft 331 kts 126°
2026-05-05 23:38 32.31694 34.30985 8941 ft 328 kts 126°
2026-05-05 23:38 32.30393 34.33249 8627 ft 333 kts 126°
2026-05-05 23:38 32.29124 34.35457 8299 ft 327 kts 126°
2026-05-05 23:38 32.27825 34.37711 7970 ft 337 kts 126°
2026-05-05 23:39 32.27033 34.39086 7768 ft 341 kts 126°
2026-05-05 23:39 32.25695 34.41411 7406 ft 340 kts 125°
2026-05-05 23:39 32.24364 34.43721 7055 ft 339 kts 125°
2026-05-05 23:39 32.23041 34.46015 6709 ft 337 kts 125°
2026-05-05 23:40 32.21723 34.48292 6360 ft 334 kts 126°
2026-05-05 23:40 32.20405 34.50556 6004 ft 333 kts 125°
2026-05-05 23:40 32.19097 34.52806 5670 ft 331 kts 125°
2026-05-05 23:40 32.17800 34.55041 5319 ft 325 kts 125°
2026-05-05 23:41 32.16554 34.57197 4991 ft 310 kts 124°
2026-05-05 23:41 32.15382 34.59222 4667 ft 296 kts 124°
2026-05-05 23:41 32.14330 34.61251 4364 ft 283 kts 122°
2026-05-05 23:41 32.13346 34.63206 4076 ft 271 kts 121°
2026-05-05 23:42 32.12399 34.65076 3814 ft 262 kts 122°
2026-05-05 23:42 32.11463 34.66915 3548 ft 260 kts 122°
2026-05-05 23:42 32.10539 34.68726 3306 ft 252 kts 121°
2026-05-05 23:42 32.09643 34.70485 3069 ft 249 kts 122°
2026-05-05 23:43 32.08761 34.72216 2811 ft 246 kts 121°
2026-05-05 23:43 32.07880 34.73942 2549 ft 245 kts 121°
2026-05-05 23:43 32.07011 34.75645 2299 ft 237 kts 121°
2026-05-05 23:43 32.06181 34.77276 1988 ft 227 kts 121°
2026-05-05 23:44 32.05440 34.78746 1706 ft 201 kts 121°
2026-05-05 23:44 32.05126 34.79366 1579 ft 188 kts 121°
2026-05-05 23:44 32.04505 34.80587 1342 ft 162 kts 122°
2026-05-05 23:44 32.03938 34.81701 1117 ft 156 kts 122°
2026-05-05 23:45 32.03387 34.82781 925 ft 152 kts 122°
2026-05-05 23:45 32.02845 34.83844 719 ft 150 kts 121°
2026-05-05 23:45 32.02313 34.84900 512 ft 150 kts 120°
2026-05-05 23:45 32.01778 34.85956 310 ft 149 kts 120°
2026-05-05 23:46 32.01258 34.86990 137 ft 146 kts 120°
2026-05-05 23:46 32.00828 34.87822 122 ft 78 kts 121°
2026-05-05 23:46 32.00617 34.88231 122 ft 49 kts 121°
2026-05-05 23:46 32.00454 34.88521 123 ft 39 kts 133°
2026-05-05 23:47 32.00251 34.88678 121 ft 29 kts 159°
2026-05-05 23:47 32.00121 34.88693 121 ft 13 kts 207°
2026-05-05 23:47 32.00103 34.88632 124 ft 7 kts 285°
2026-05-05 23:47 32.00124 34.88587 124 ft 1 kts 301°
2026-05-05 23:59 32.00126 34.88584 125 ft 3 kts 301°
2026-05-05 23:59 32.00166 34.88506 121 ft 16 kts 301°
2026-05-05 23:59 32.00229 34.88384 122 ft 18 kts 301°
2026-05-05 23:59 32.00296 34.88256 121 ft 19 kts 301°
2026-05-06 00:00 32.00369 34.88118 124 ft 20 kts 301°
2026-05-06 00:00 32.00444 34.87974 122 ft 17 kts 301°
2026-05-06 00:00 32.00489 34.87884 123 ft 11 kts 294°
2026-05-06 00:00 32.00476 34.87841 121 ft 10 kts 227°
2026-05-06 00:01 32.00405 34.87788 122 ft 13 kts 211°
2026-05-06 00:01 32.00325 34.87731 122 ft 13 kts 211°
2026-05-06 00:01 32.00245 34.87674 122 ft 13 kts 211°
2026-05-06 00:01 32.00188 34.87624 123 ft 9 kts 237°
2026-05-06 00:02 32.00175 34.87570 121 ft 4 kts 259°
2026-05-06 00:02 32.00171 34.87540 123 ft 3 kts 261°
2026-05-06 00:02 32.00168 34.87522 124 ft 2 kts 261°
2026-05-06 00:02 32.00167 34.87516 125 ft 0 kts 261°